Location: Castelnau
(43.6639°N, 0.8431°W)
Time: 22:42:31
(UTC+00:00)

BlueWalker 3 - Pass Details

Date: 13 January 2026
Orbit: 450 x 461 km, 53.2° (Epoch: 11 February)

Event Time Altitude Azimuth Distance (km) Brightness Sun altitude
Exits shadow 05:16:52 13° 173° (S) 1,421 4.4 -24.4°
Drops below altitude 10° 05:17:22 10° 168° (SSE) 1,588 4.7 -24.3°
Sets 05:19:42 0° 155° (SSE) 2,460 5.9 -23.9°
